SPACEBEE-12 (46309 NORAD) Tracking and Keplerian Element Data

This shows tracking and keplerian element data for the satellite.

Feedback or suggestion? Click here.




ElementValue
Catalog46309
NameSPACEBEE-12
Epoch Orbit311
Epoch Day268.40713301
Epoch Year2020
RAAN341.1655
Inclination97.518
Eccentricity0.0001594
Argument of Perigee126.9072
Mean Anonmoly233.2304
Mean Motion15.10669585
Decay Rate2.074E-05
L11 46309U 20061AP 20268.40713301 .00002074 00000-0 12914-3 0 9991
L22 46309 97.5180 341.1655 0001594 126.9072 233.2304 15.10669585 3113

Live tracking and technical data element details for SPACEBEE-12 (NORAD 46309). SPACEBEE-12 can be tracked NOW for your location showing map with azimuth and elevation plus other details from your city location.

Track the satellite on the map from your city or location and see movement details for azimuth, elevation, latitude, longitude, range, height, and movement on the map or in text.







IsCatalogInMostPopularTable: catalog: 46309, numindb: -1

Insert: records affected: 1


GetName: 46309 SPACEBEE-12

Hit Count: inserted at: Sat, 26 Sep 2020 14:42:40 GMT